Home > Weather > Córdoba > Past weeks

Flag for Spain Weather for the Past 2 Weeks in Córdoba, Spain

Now
54 °F

Clear.


Feels Like: 54 °F
Forecast: 55 / 70 °F
Wind: No wind

Location: Moron De La Frontera Airport

Current Time: May 4, 2016 at 6:52:10 AM

Latest Report: May 4, 2016 at 6:00 AM


Visibility: 10 mi

Pressure: 29.95 "Hg

Humidity: 58%

Dew Point: 39 °F

Location of CórdobaLocation

Historic Weather in Córdoba — Graph

°F

Córdoba Temperature Yesterday

Maximum temperature yesterday: 90 °F (at 4:00 PM)
Minimum temperature yesterday: 54 °F (at 3:00 AM)
Average temperature yesterday: 72 °F

High & Low Weather Summary for the Past Weeks

 TemperatureHumidityPressure
High90 °F (May 3, 4:00 PM)100% (Apr 20, 1:00 AM)30.21 "Hg (Apr 20, 1:00 AM)
Low46 °F (Apr 21, 6:00 AM)11% (May 3, 1:00 PM)29.83 "Hg (Apr 19, 6:00 AM)
Average65 °F66%30.00 "Hg
* Reported Apr 19 5:00 AM — May 4 5:00 AM, Córdoba, Weather by CustomWeather, © 2016

Note: Actual official high and low records may vary slightly from our data, if they occured in-between our weather recording intervals... More about our weather records

Advertising

Córdoba Weather History for the Previous 24 Hours

Scroll right to see more
 ConditionsComfort  
Time TempWeatherWind HumidityBarometerVisibility
5:00 AM
Wed, May 4
55 °FClear.1 mph59%29.95 "Hg10 mi
4:00 AM55 °FClear.1 mph63%29.98 "Hg10 mi
3:00 AM55 °FClear.1 mph63%29.98 "Hg10 mi
2:00 AM63 °FClear.1 mph37%29.98 "Hg10 mi
1:00 AM66 °FClear.1 mph32%29.98 "Hg10 mi
12:00 AM72 °FPassing clouds.5 mph17%29.98 "HgN/A
11:00 PM
Tue, May 3
73 °FPassing clouds.7 mph15%29.98 "HgN/A
10:00 PM73 °FSunny.7 mph17%29.95 "Hg10 mi
9:00 PM79 °FSunny.7 mph17%29.95 "Hg10 mi
8:00 PM84 °FSunny.8 mph15%29.92 "Hg10 mi
7:00 PM86 °FPassing clouds.10 mph13%29.92 "HgN/A
6:00 PM88 °FPassing clouds.13 mph13%29.95 "HgN/A
5:00 PM90 °FSunny.12 mph14%29.95 "Hg10 mi
4:00 PM90 °FPassing clouds.10 mph14%29.98 "HgN/A
3:00 PM88 °FSunny.5 mph12%29.98 "Hg10 mi
2:00 PM88 °FSunny.5 mph13%30.01 "Hg10 mi
1:00 PM86 °FPassing clouds.10 mph11%30.01 "HgN/A
12:00 PM81 °FPassing clouds.15 mph17%30.04 "HgN/A
11:00 AM77 °FPassing clouds.15 mph18%30.04 "HgN/A
10:00 AM72 °FPassing clouds.17 mph22%30.04 "HgN/A
9:00 AM66 °FSunny.14 mph28%30.04 "Hg10 mi
8:00 AM61 °FClear.10 mph34%30.04 "Hg10 mi
7:00 AM61 °FClear.10 mph34%30.01 "Hg10 mi
6:00 AM59 °FClear.9 mph42%30.01 "Hg10 mi
Weather by CustomWeather, © 2016

See weather overviewHow to use our weather pages